contact:dominique.lefevre@mio.osupytheas.fr, maurice.libes@osupytheas.fr, didier.mallarino@osupytheas.fr
Project:EMSO http://www.emso-fr.org/EMSO-France
Depth: 2436.0 m
Title:EMSO Ligure Ouest : Data MII capteur AQUADOPP
Date,Latitude,Longitude,X_East,Y_North,Z_Up,Amplitude_X,Amplitude_Y,Amplitude_Z,Batterie,SoundSpeed,Heading,Pitch,Roll,Pressure,TIS,Speed,Direction
, degrees North, degrees East, m.s-1, m.s-1,m.s-1, 1, 1, 1, Volt, m.s-1, degree, degree, degree, dbar, degree_C, m.s-1, degree
2020-04-15T00:04:03,42.805,6.029,-0.067,0.042,-0.069,107.0,113.0,104.0,13.4,1505.2,325.1,-0.8,1.8,2470.375,13.29,0.079,302.1
2020-04-15T00:07:03,42.805,6.029,-0.06,0.055,0.017,109.0,114.0,106.0,13.3,1505.2,326.5,-0.7,1.8,2470.338,13.3,0.081,312.5
2020-04-15T00:10:03,42.805,6.029,-0.07,0.037,-0.013,107.0,114.0,104.0,13.3,1505.3,323.3,-0.7,1.9,2470.361,13.31,0.079,297.9
2020-04-15T00:13:03,42.805,6.029,-0.042,0.045,0.009,108.0,116.0,105.0,13.4,1505.3,326.6,-0.7,1.8,2470.335,13.32,0.061,317.0
2020-04-15T00:16:03,42.805,6.029,-0.032,0.048,-0.018,108.0,114.0,105.0,13.4,1505.3,327.6,-0.7,1.8,2470.351,13.32,0.057,326.3
2020-04-15T00:19:03,42.805,6.029,-0.084,0.052,0.012,109.0,113.0,105.0,13.4,1505.3,324.5,-0.7,1.8,2470.271,13.32,0.098,301.8
2020-04-15T00:22:03,42.805,6.029,-0.057,0.056,-0.005,106.0,115.0,103.0,13.3,1505.3,326.2,-0.7,1.8,2470.331,13.32,0.079,314.5
2020-04-15T00:25:03,42.805,6.029,-0.048,0.037,0.009,108.0,113.0,103.0,13.4,1505.3,324.7,-0.7,1.9,2470.291,13.32,0.06,307.6
2020-04-15T00:28:03,42.805,6.029,-0.085,0.038,-0.013,107.0,112.0,104.0,13.4,1505.3,324.4,-0.8,1.9,2470.337,13.32,0.093,294.1
2020-04-15T00:31:03,42.805,6.029,-0.066,0.055,-0.01,107.0,115.0,105.0,13.3,1505.3,325.7,-0.7,1.8,2470.321,13.32,0.085,309.8
2020-04-15T00:34:03,42.805,6.029,-0.056,0.038,-0.002,108.0,117.0,105.0,13.3,1505.3,324.8,-0.7,1.8,2470.304,13.32,0.067,304.2
2020-04-15T00:37:03,42.805,6.029,-0.057,0.042,0.01,108.0,116.0,104.0,13.3,1505.3,326.5,-0.7,1.8,2470.297,13.32,0.07,306.4
2020-04-15T00:40:03,42.805,6.029,-0.058,0.05,0.003,107.0,115.0,103.0,13.4,1505.3,324.6,-0.7,1.8,2470.305,13.32,0.076,310.8
2020-04-15T00:43:03,42.805,6.029,-0.07,0.049,-0.019,108.0,115.0,104.0,13.3,1505.3,323.1,-0.7,1.8,2470.323,13.32,0.085,305.0
2020-04-15T00:46:03,42.805,6.029,-0.054,0.072,0.041,107.0,117.0,104.0,13.3,1505.3,323.9,-0.7,1.8,2470.307,13.32,0.089,323.1
2020-04-15T00:49:03,42.805,6.029,-0.039,0.051,0.007,107.0,117.0,104.0,13.3,1505.3,325.9,-0.7,1.8,2470.308,13.32,0.064,322.6
2020-04-15T00:52:03,42.805,6.029,-0.054,0.052,0.007,108.0,116.0,104.0,13.4,1505.3,326.7,-0.7,1.8,2470.258,13.32,0.074,313.9
2020-04-15T00:55:03,42.805,6.029,-0.035,0.046,-0.002,107.0,114.0,105.0,13.3,1505.3,327.2,-0.7,1.8,2470.313,13.32,0.057,322.7
2020-04-15T00:58:03,42.805,6.029,-0.065,0.049,0.021,107.0,114.0,105.0,13.4,1505.3,323.0,-0.7,1.8,2470.293,13.32,0.081,307.0
2020-04-15T01:04:03,42.805,6.029,-0.071,0.085,0.01,109.0,117.0,106.0,13.4,1505.2,326.3,-0.7,1.8,2470.334,13.3,0.11,320.1
2020-04-15T01:07:03,42.805,6.029,-0.05,0.057,0.021,108.0,118.0,104.0,13.4,1505.3,325.0,-0.7,1.8,2470.341,13.31,0.075,318.7
2020-04-15T01:10:03,42.805,6.029,-0.091,0.055,-0.011,110.0,116.0,104.0,13.4,1505.3,325.8,-0.7,1.8,2470.338,13.31,0.106,301.2
2020-04-15T01:13:03,42.805,6.029,-0.067,0.033,0.0,109.0,113.0,104.0,13.4,1505.3,326.1,-0.7,1.8,2470.324,13.32,0.074,296.2
2020-04-15T01:16:03,42.805,6.029,-0.056,0.063,-0.001,107.0,115.0,104.0,13.4,1505.3,327.2,-0.7,1.8,2470.31,13.32,0.084,318.4
2020-04-15T01:19:03,42.805,6.029,-0.067,0.052,0.034,108.0,114.0,106.0,13.3,1505.3,324.5,-0.7,1.8,2470.319,13.32,0.084,307.8
2020-04-15T01:22:03,42.805,6.029,-0.048,0.043,0.006,108.0,115.0,104.0,13.4,1505.3,323.0,-0.7,1.9,2470.301,13.32,0.064,311.9
2020-04-15T01:25:03,42.805,6.029,-0.072,0.072,0.007,106.0,117.0,103.0,13.4,1505.3,327.9,-0.7,1.8,2470.285,13.32,0.101,315.0
2020-04-15T01:28:03,42.805,6.029,-0.054,0.041,0.004,108.0,116.0,104.0,13.4,1505.3,324.1,-0.7,1.8,2470.31,13.32,0.067,307.2
2020-04-15T01:31:03,42.805,6.029,-0.06,0.042,-0.003,108.0,117.0,104.0,13.4,1505.3,323.6,-0.7,1.8,2470.316,13.32,0.073,305.0
2020-04-15T01:34:03,42.805,6.029,-0.066,0.065,0.029,108.0,115.0,102.0,13.4,1505.3,325.8,-0.7,1.8,2470.314,13.32,0.092,314.6
2020-04-15T01:37:03,42.805,6.029,-0.05,0.061,-0.019,108.0,115.0,104.0,13.4,1505.3,326.4,-0.7,1.8,2470.31,13.32,0.078,320.7
2020-04-15T01:40:03,42.805,6.029,-0.08,0.057,-0.003,108.0,116.0,103.0,13.4,1505.3,324.3,-0.7,1.9,2470.288,13.32,0.098,305.5
2020-04-15T01:43:03,42.805,6.029,-0.054,0.05,-0.005,108.0,115.0,104.0,13.4,1505.3,325.6,-0.7,1.8,2470.331,13.32,0.073,312.8
2020-04-15T01:46:03,42.805,6.029,-0.063,0.069,0.016,106.0,117.0,104.0,13.4,1505.3,326.1,-0.7,1.9,2470.285,13.32,0.093,317.6
2020-04-15T01:52:03,42.805,6.029,-0.045,0.05,0.015,107.0,117.0,104.0,13.4,1505.2,324.9,-0.7,1.8,2470.334,13.3,0.067,318.0
2020-04-15T01:55:03,42.805,6.029,-0.045,0.054,0.029,109.0,115.0,104.0,13.4,1505.3,323.9,-0.7,1.8,2470.316,13.31,0.07,320.2
2020-04-15T01:58:03,42.805,6.029,-0.055,0.034,0.002,107.0,114.0,104.0,13.3,1505.3,324.8,-0.7,1.8,2470.3,13.32,0.064,301.7
2020-04-15T02:04:03,42.805,6.029,-0.061,0.057,0.0,109.0,116.0,103.0,13.4,1505.2,325.4,-0.8,1.9,2470.33,13.3,0.083,313.1
2020-04-15T02:07:03,42.805,6.029,-0.064,0.06,-0.003,108.0,115.0,103.0,13.4,1505.3,326.3,-0.7,1.8,2470.351,13.31,0.087,313.1
2020-04-15T02:10:03,42.805,6.029,-0.07,0.061,0.014,107.0,116.0,104.0,13.3,1505.3,328.2,-0.7,1.9,2470.341,13.31,0.092,311.1
2020-04-15T02:13:03,42.805,6.029,-0.05,0.056,0.007,107.0,115.0,104.0,13.3,1505.3,326.6,-0.7,1.8,2470.338,13.32,0.075,318.2
2020-04-15T02:16:03,42.805,6.029,-0.048,0.061,0.005,108.0,114.0,103.0,13.4,1505.3,327.7,-0.7,1.8,2470.347,13.32,0.077,321.8
2020-04-15T02:19:03,42.805,6.029,-0.045,0.052,-0.008,107.0,116.0,104.0,13.4,1505.3,325.3,-0.7,1.8,2470.316,13.32,0.068,319.1
2020-04-15T02:22:03,42.805,6.029,-0.055,0.039,0.007,107.0,115.0,104.0,13.4,1505.3,325.4,-0.7,1.8,2470.305,13.32,0.067,305.3
2020-04-15T02:25:03,42.805,6.029,-0.061,0.061,0.024,108.0,117.0,103.0,13.4,1505.3,327.8,-0.7,1.8,2470.318,13.32,0.086,315.0
2020-04-15T02:28:03,42.805,6.029,-0.058,0.036,-0.012,107.0,117.0,104.0,13.4,1505.3,323.0,-0.7,1.8,2470.312,13.32,0.068,301.8
2020-04-15T02:31:03,42.805,6.029,-0.042,0.042,0.01,107.0,116.0,105.0,13.3,1505.3,326.1,-0.7,1.8,2470.292,13.32,0.059,315.0
2020-04-15T02:34:03,42.805,6.029,-0.076,0.048,0.004,108.0,116.0,103.0,13.4,1505.3,324.9,-0.7,1.8,2470.298,13.32,0.089,302.3
2020-04-15T02:37:03,42.805,6.029,-0.072,0.063,0.007,108.0,115.0,104.0,13.4,1505.3,324.7,-0.7,1.8,2470.295,13.32,0.095,311.2
2020-04-15T02:40:03,42.805,6.029,-0.082,0.08,-0.002,106.0,114.0,105.0,13.4,1505.3,326.3,-0.7,1.9,2470.266,13.32,0.114,314.3
2020-04-15T02:43:03,42.805,6.029,-0.035,0.062,0.019,108.0,118.0,104.0,13.4,1505.3,327.2,-0.7,1.8,2470.265,13.32,0.071,330.6
2020-04-15T02:46:03,42.805,6.029,-0.052,0.047,0.0,108.0,116.0,104.0,13.3,1505.3,326.5,-0.7,1.9,2470.318,13.32,0.07,312.1
2020-04-15T02:49:03,42.805,6.029,-0.037,0.059,0.032,107.0,116.0,104.0,13.4,1505.3,325.5,-0.7,1.9,2470.309,13.32,0.069,327.9
2020-04-15T02:52:03,42.805,6.029,-0.049,0.056,0.005,108.0,116.0,104.0,13.4,1505.3,328.5,-0.7,1.8,2470.259,13.32,0.074,318.8
2020-04-15T02:55:03,42.805,6.029,-0.063,0.054,0.003,108.0,117.0,104.0,13.4,1505.3,324.6,-0.7,1.8,2470.285,13.32,0.082,310.6
2020-04-15T02:58:03,42.805,6.029,-0.081,0.038,0.01,107.0,116.0,103.0,13.4,1505.3,324.2,-0.7,1.8,2470.314,13.32,0.089,295.1
2020-04-15T03:04:03,42.805,6.029,-0.08,0.072,0.016,107.0,116.0,104.0,13.4,1505.2,323.8,-0.7,1.8,2470.298,13.3,0.107,312.0
2020-04-15T03:07:03,42.805,6.029,-0.055,0.04,-0.003,108.0,116.0,104.0,13.4,1505.3,325.3,-0.7,1.8,2470.341,13.31,0.068,306.0
2020-04-15T03:10:03,42.805,6.029,-0.012,0.026,0.018,108.0,116.0,104.0,13.4,1505.3,327.6,-0.7,1.8,2470.344,13.32,0.028,335.2
2020-04-15T03:13:03,42.805,6.029,-0.061,0.037,-0.002,108.0,116.0,104.0,13.4,1505.3,325.3,-0.7,1.8,2470.334,13.32,0.071,301.2
2020-04-15T03:16:03,42.805,6.029,-0.066,0.059,0.009,108.0,116.0,104.0,13.4,1505.3,323.4,-0.7,1.8,2470.309,13.32,0.088,311.8
2020-04-15T03:19:03,42.805,6.029,-0.053,0.05,0.013,107.0,117.0,103.0,13.4,1505.3,325.6,-0.7,1.8,2470.313,13.32,0.072,313.3
2020-04-15T03:22:03,42.805,6.029,-0.043,0.062,-0.006,108.0,116.0,104.0,13.4,1505.3,326.1,-0.7,1.9,2470.304,13.32,0.075,325.3
2020-04-15T03:25:03,42.805,6.029,-0.044,0.056,0.014,108.0,115.0,105.0,13.4,1505.3,324.6,-0.7,1.9,2470.307,13.32,0.071,321.8
2020-04-15T03:28:03,42.805,6.029,-0.066,0.055,-0.011,108.0,117.0,104.0,13.3,1505.3,325.0,-0.7,1.9,2470.318,13.32,0.085,309.8
2020-04-15T03:31:03,42.805,6.029,-0.05,0.056,0.031,106.0,116.0,104.0,13.4,1505.3,325.3,-0.7,1.9,2470.325,13.32,0.075,318.2
2020-04-15T03:34:03,42.805,6.029,-0.042,0.035,0.002,108.0,117.0,104.0,13.3,1505.3,325.2,-0.7,1.9,2470.306,13.32,0.054,309.8
2020-04-15T03:37:03,42.805,6.029,-0.04,0.066,0.0,109.0,115.0,105.0,13.4,1505.3,326.3,-0.7,1.8,2470.334,13.32,0.077,328.8
2020-04-15T03:40:03,42.805,6.029,-0.031,0.064,0.012,108.0,118.0,105.0,13.4,1505.3,324.8,-0.7,1.9,2470.265,13.32,0.071,334.2
2020-04-15T03:43:03,42.805,6.029,-0.052,0.07,0.007,108.0,116.0,103.0,13.4,1505.3,326.7,-0.7,1.8,2470.31,13.32,0.087,323.4
2020-04-15T03:46:03,42.805,6.029,-0.065,0.067,-0.019,107.0,117.0,103.0,13.3,1505.3,328.5,-0.7,1.8,2470.319,13.32,0.093,315.9
2020-04-15T03:49:03,42.805,6.029,-0.025,0.078,0.046,107.0,115.0,106.0,13.4,1505.3,327.2,-0.7,1.8,2470.314,13.32,0.081,342.2
2020-04-15T03:52:03,42.805,6.029,-0.06,0.048,-0.014,109.0,118.0,105.0,13.4,1505.3,326.9,-0.7,1.8,2470.288,13.32,0.076,308.7
2020-04-15T03:55:03,42.805,6.029,-0.078,0.061,-0.009,108.0,115.0,103.0,13.4,1505.3,326.0,-0.7,1.8,2470.28,13.32,0.099,308.0
2020-04-15T03:58:03,42.805,6.029,-0.043,0.043,-0.022,107.0,117.0,104.0,13.4,1505.3,325.9,-0.7,1.9,2470.293,13.32,0.06,315.0
2020-04-15T04:04:03,42.805,6.029,-0.05,0.068,0.015,109.0,117.0,104.0,13.4,1505.2,323.2,-0.7,1.8,2470.341,13.3,0.084,323.7
2020-04-15T04:07:03,42.805,6.029,-0.033,0.069,0.028,108.0,120.0,103.0,13.4,1505.3,326.4,-0.7,1.8,2470.308,13.31,0.076,334.4
2020-04-15T04:10:03,42.805,6.029,-0.054,0.054,0.017,108.0,118.0,104.0,13.4,1505.3,327.7,-0.7,1.8,2470.334,13.32,0.076,315.0
2020-04-15T04:13:03,42.805,6.029,-0.03,0.045,0.008,108.0,118.0,103.0,13.3,1505.3,326.4,-0.7,1.8,2470.326,13.32,0.054,326.3
2020-04-15T04:16:03,42.805,6.029,-0.062,0.037,0.003,107.0,117.0,103.0,13.4,1505.3,327.1,-0.7,1.8,2470.352,13.32,0.072,300.8
2020-04-15T04:19:03,42.805,6.029,-0.073,0.075,0.02,108.0,117.0,103.0,13.4,1505.3,323.3,-0.7,1.8,2470.321,13.32,0.104,315.8
2020-04-15T04:22:03,42.805,6.029,-0.042,0.07,0.012,108.0,116.0,104.0,13.4,1505.3,325.9,-0.7,1.8,2470.308,13.32,0.081,329.0
2020-04-15T04:25:03,42.805,6.029,-0.042,0.073,0.043,108.0,119.0,104.0,13.4,1505.3,326.2,-0.7,1.8,2470.274,13.32,0.084,330.1
2020-04-15T04:28:03,42.805,6.029,-0.069,0.054,-0.011,107.0,117.0,104.0,13.4,1505.3,326.4,-0.7,1.8,2470.277,13.32,0.087,308.0
2020-04-15T04:31:03,42.805,6.029,-0.043,0.033,-0.014,109.0,118.0,104.0,13.4,1505.3,324.9,-0.7,1.8,2470.341,13.32,0.054,307.5
2020-04-15T04:34:03,42.805,6.029,-0.054,0.06,0.013,107.0,117.0,104.0,13.4,1505.3,327.5,-0.7,1.8,2470.317,13.32,0.08,318.0
2020-04-15T04:37:03,42.805,6.029,-0.041,0.057,0.006,106.0,117.0,103.0,13.4,1505.3,324.8,-0.7,1.8,2470.324,13.32,0.07,324.3
2020-04-15T04:40:03,42.805,6.029,-0.049,0.076,0.035,108.0,117.0,105.0,13.4,1505.3,324.0,-0.7,1.8,2470.29,13.32,0.09,327.2
2020-04-15T04:43:03,42.805,6.029,-0.058,0.064,-0.013,107.0,117.0,104.0,13.3,1505.3,328.1,-0.7,1.9,2470.284,13.32,0.086,317.8
2020-04-15T04:46:03,42.805,6.029,-0.048,0.057,0.032,108.0,117.0,103.0,13.4,1505.3,324.5,-0.7,1.8,2470.293,13.32,0.074,319.9
2020-04-15T04:49:03,42.805,6.029,-0.059,0.07,0.027,107.0,117.0,103.0,13.3,1505.3,324.6,-0.7,1.8,2470.3,13.32,0.091,319.9
2020-04-15T04:52:03,42.805,6.029,-0.077,0.054,-0.006,107.0,117.0,104.0,13.4,1505.3,324.7,-0.7,1.8,2470.31,13.32,0.094,305.0
2020-04-15T04:55:03,42.805,6.029,-0.058,0.083,0.003,106.0,118.0,104.0,13.3,1505.3,325.7,-0.7,1.8,2470.292,13.32,0.101,325.1
2020-04-15T04:58:03,42.805,6.029,-0.056,0.073,0.02,106.0,118.0,104.0,13.4,1505.3,324.6,-0.7,1.9,2470.253,13.32,0.092,322.5
2020-04-15T05:04:03,42.805,6.029,-0.048,0.053,0.041,106.0,119.0,104.0,13.4,1505.2,325.3,-0.7,1.8,2470.304,13.3,0.071,317.8
2020-04-15T05:07:03,42.805,6.029,-0.044,0.063,0.02,107.0,117.0,104.0,13.4,1505.3,325.9,-0.8,1.8,2470.317,13.31,0.076,325.1
2020-04-15T05:10:03,42.805,6.029,-0.034,0.066,0.035,107.0,117.0,103.0,13.4,1505.3,328.6,-0.7,1.8,2470.326,13.32,0.074,332.7
2020-04-15T05:13:03,42.805,6.029,-0.025,0.038,0.0,108.0,116.0,104.0,13.4,1505.3,327.6,-0.7,1.8,2470.293,13.32,0.045,326.7
2020-04-15T05:16:03,42.805,6.029,-0.076,0.039,0.005,107.0,117.0,104.0,13.4,1505.3,323.8,-0.7,1.8,2470.294,13.32,0.085,297.2
2020-04-15T05:19:03,42.805,6.029,-0.066,0.047,0.011,108.0,116.0,104.0,13.4,1505.3,326.2,-0.7,1.8,2470.318,13.32,0.081,305.5
2020-04-15T05:22:03,42.805,6.029,-0.057,0.064,0.032,108.0,118.0,103.0,13.3,1505.3,327.5,-0.7,1.8,2470.3,13.32,0.085,318.3
2020-04-15T05:25:03,42.805,6.029,-0.044,0.052,0.052,107.0,118.0,103.0,13.3,1505.3,327.4,-0.7,1.8,2470.265,13.32,0.068,319.8
2020-04-15T05:28:03,42.805,6.029,-0.033,0.05,0.006,108.0,117.0,104.0,13.4,1505.3,328.0,-0.7,1.8,2470.297,13.32,0.059,326.6
2020-04-15T05:31:03,42.805,6.029,-0.04,0.055,0.013,108.0,117.0,104.0,13.3,1505.3,327.1,-0.7,1.8,2470.244,13.32,0.068,324.0
2020-04-15T05:34:03,42.805,6.029,-0.043,0.047,0.01,107.0,117.0,105.0,13.4,1505.3,324.2,-0.7,1.8,2470.282,13.32,0.063,317.5
2020-04-15T05:37:03,42.805,6.029,-0.068,0.046,-0.004,107.0,117.0,104.0,13.4,1505.3,327.0,-0.7,1.8,2470.274,13.32,0.082,304.1
2020-04-15T05:40:03,42.805,6.029,-0.035,0.046,0.005,107.0,117.0,105.0,13.4,1505.3,326.3,-0.7,1.8,2470.282,13.32,0.057,322.7
2020-04-15T05:43:03,42.805,6.029,-0.043,0.065,0.003,107.0,117.0,103.0,13.4,1505.3,327.2,-0.7,1.9,2470.277,13.32,0.077,326.5
2020-04-15T05:46:03,42.805,6.029,-0.041,0.066,0.031,107.0,117.0,104.0,13.4,1505.3,326.6,-0.7,1.8,2470.292,13.32,0.077,328.1
2020-04-15T05:49:03,42.805,6.029,-0.078,0.053,0.0,108.0,117.0,103.0,13.4,1505.3,324.4,-0.7,1.8,2470.302,13.32,0.094,304.2
2020-04-15T05:52:03,42.805,6.029,-0.039,0.063,0.034,107.0,118.0,104.0,13.3,1505.3,324.2,-0.7,1.8,2470.28,13.32,0.074,328.2
2020-04-15T05:55:03,42.805,6.029,-0.048,0.063,0.011,107.0,119.0,103.0,13.4,1505.3,328.2,-0.7,1.8,2470.275,13.32,0.079,322.7
2020-04-15T05:58:03,42.805,6.029,-0.031,0.055,0.021,108.0,117.0,104.0,13.3,1505.3,325.7,-0.7,1.9,2470.27,13.32,0.063,330.6
2020-04-15T06:04:03,42.805,6.029,-0.05,0.074,-0.003,106.0,117.0,104.0,13.3,1505.2,326.9,-0.8,1.8,2470.299,13.3,0.089,326.0
2020-04-15T06:07:03,42.805,6.029,-0.055,0.075,0.014,106.0,117.0,105.0,13.4,1505.3,326.2,-0.7,1.8,2470.268,13.31,0.093,323.7
2020-04-15T06:10:03,42.805,6.029,-0.06,0.07,0.007,106.0,119.0,104.0,13.4,1505.3,323.0,-0.7,1.8,2470.25,13.32,0.092,319.4
2020-04-15T06:13:03,42.805,6.029,-0.014,0.054,0.039,107.0,118.0,103.0,13.3,1505.3,327.7,-0.7,1.8,2470.273,13.32,0.055,345.5
2020-04-15T06:16:03,42.805,6.029,-0.06,0.055,0.003,107.0,117.0,105.0,13.4,1505.3,326.7,-0.7,1.8,2470.257,13.32,0.081,312.5
2020-04-15T06:19:03,42.805,6.029,-0.053,0.052,0.029,107.0,117.0,105.0,13.3,1505.3,326.6,-0.7,1.8,2470.278,13.32,0.074,314.5
2020-04-15T06:22:03,42.805,6.029,-0.015,0.071,0.032,107.0,119.0,104.0,13.4,1505.3,324.0,-0.7,1.9,2470.29,13.32,0.072,348.1
2020-04-15T06:25:03,42.805,6.029,-0.033,0.057,0.031,107.0,117.0,103.0,13.4,1505.3,325.3,-0.7,1.8,2470.25,13.32,0.065,329.9
2020-04-15T06:28:03,42.805,6.029,-0.059,0.054,-0.004,108.0,118.0,103.0,13.4,1505.3,325.1,-0.7,1.8,2470.255,13.32,0.079,312.5
2020-04-15T06:31:03,42.805,6.029,-0.027,0.066,0.037,108.0,118.0,105.0,13.3,1505.3,326.7,-0.7,1.8,2470.251,13.32,0.071,337.8
2020-04-15T06:34:03,42.805,6.029,-0.048,0.061,0.006,108.0,117.0,104.0,13.3,1505.3,326.5,-0.7,1.8,2470.278,13.32,0.077,321.8
2020-04-15T06:37:03,42.805,6.029,-0.04,0.045,0.005,107.0,118.0,104.0,13.4,1505.3,327.4,-0.7,1.8,2470.261,13.32,0.06,318.4
2020-04-15T06:40:03,42.805,6.029,-0.023,0.064,-0.014,107.0,119.0,104.0,13.4,1505.3,324.8,-0.7,1.9,2470.274,13.32,0.068,340.2
2020-04-15T06:43:03,42.805,6.029,-0.039,0.064,0.018,107.0,118.0,105.0,13.4,1505.3,324.3,-0.7,1.8,2470.255,13.32,0.074,328.6
2020-04-15T06:46:03,42.805,6.029,-0.043,0.079,0.039,107.0,118.0,104.0,13.4,1505.3,326.7,-0.7,1.9,2470.224,13.32,0.089,331.4
2020-04-15T06:49:03,42.805,6.029,-0.053,0.041,-0.01,106.0,117.0,104.0,13.4,1505.3,327.2,-0.7,1.8,2470.223,13.32,0.067,307.7
2020-04-15T06:52:03,42.805,6.029,-0.036,0.051,0.038,108.0,119.0,104.0,13.3,1505.3,324.2,-0.7,1.9,2470.23,13.32,0.062,324.8
2020-04-15T06:55:03,42.805,6.029,-0.038,0.062,0.004,107.0,117.0,104.0,13.4,1505.3,325.6,-0.7,1.9,2470.268,13.32,0.072,328.5
2020-04-15T06:58:03,42.805,6.029,-0.044,0.048,-0.001,108.0,117.0,104.0,13.4,1505.3,324.9,-0.7,1.8,2470.258,13.32,0.065,317.5
2020-04-15T07:04:03,42.805,6.029,-0.053,0.036,-0.044,107.0,118.0,104.0,13.3,1505.2,327.9,-0.7,1.8,2470.287,13.3,0.064,304.2
2020-04-15T07:07:03,42.805,6.029,-0.027,0.067,0.033,107.0,120.0,104.0,13.4,1505.3,328.0,-0.7,1.8,2470.244,13.31,0.072,338.1
2020-04-15T07:10:03,42.805,6.029,-0.064,0.067,-0.016,107.0,118.0,104.0,13.4,1505.3,324.6,-0.7,1.8,2470.242,13.32,0.092,316.3
2020-04-15T07:13:03,42.805,6.029,-0.027,0.064,0.047,108.0,117.0,105.0,13.4,1505.3,325.8,-0.7,1.8,2470.246,13.32,0.069,337.1
2020-04-15T07:16:03,42.805,6.029,-0.049,0.05,-0.022,108.0,118.0,104.0,13.3,1505.3,324.2,-0.7,1.8,2470.261,13.32,0.07,315.6
2020-04-15T07:19:03,42.805,6.029,-0.04,0.068,0.044,107.0,119.0,103.0,13.4,1505.3,324.9,-0.7,1.8,2470.263,13.32,0.078,329.5
2020-04-15T07:22:03,42.805,6.029,-0.029,0.05,0.041,106.0,118.0,104.0,13.3,1505.3,324.4,-0.7,1.8,2470.252,13.32,0.057,329.9
2020-04-15T07:25:03,42.805,6.029,-0.037,0.058,0.003,109.0,116.0,103.0,13.4,1505.3,326.9,-0.7,1.8,2470.244,13.32,0.068,327.5
2020-04-15T07:28:03,42.805,6.029,-0.053,0.049,0.007,108.0,116.0,104.0,13.3,1505.3,326.6,-0.8,1.8,2470.272,13.32,0.072,312.8
2020-04-15T07:31:03,42.805,6.029,-0.059,0.059,0.015,107.0,118.0,103.0,13.3,1505.3,327.7,-0.7,1.8,2470.243,13.32,0.083,315.0
2020-04-15T07:34:03,42.805,6.029,-0.023,0.075,0.016,107.0,118.0,103.0,13.4,1505.3,325.7,-0.7,1.9,2470.25,13.32,0.078,343.0
2020-04-15T07:37:03,42.805,6.029,-0.053,0.053,-0.029,107.0,118.0,103.0,13.3,1505.3,328.3,-0.7,1.9,2470.261,13.32,0.074,315.0
2020-04-15T07:40:03,42.805,6.029,-0.033,0.055,0.008,107.0,119.0,104.0,13.3,1505.3,328.2,-0.7,1.8,2470.247,13.32,0.064,329.0
2020-04-15T07:43:03,42.805,6.029,-0.049,0.04,-0.027,109.0,116.0,103.0,13.4,1505.3,324.8,-0.7,1.8,2470.216,13.32,0.063,309.2
2020-04-15T07:46:03,42.805,6.029,-0.04,0.043,-0.029,107.0,117.0,104.0,13.3,1505.3,327.8,-0.7,1.9,2470.231,13.32,0.058,317.1
2020-04-15T07:49:03,42.805,6.029,-0.066,0.042,-0.032,105.0,116.0,105.0,13.3,1505.3,325.3,-0.7,1.8,2470.233,13.32,0.078,302.5
2020-04-15T07:52:03,42.805,6.029,-0.058,0.062,-0.009,106.0,116.0,104.0,13.4,1505.3,323.1,-0.7,1.8,2470.272,13.32,0.084,316.9
2020-04-15T07:55:03,42.805,6.029,-0.039,0.065,0.016,108.0,117.0,104.0,13.4,1505.3,327.7,-0.7,1.8,2470.237,13.32,0.075,329.0
2020-04-15T07:58:03,42.805,6.029,-0.059,0.059,0.032,106.0,117.0,104.0,13.3,1505.3,324.5,-0.7,1.8,2470.274,13.32,0.083,315.0
2020-04-15T08:04:03,42.805,6.029,-0.054,0.037,-0.002,108.0,118.0,104.0,13.4,1505.2,326.0,-0.7,1.8,2470.303,13.3,0.065,304.4
2020-04-15T08:07:03,42.805,6.029,-0.056,0.05,0.017,108.0,118.0,104.0,13.3,1505.3,326.6,-0.7,1.8,2470.287,13.31,0.075,311.8
2020-04-15T08:10:03,42.805,6.029,-0.06,0.056,0.0,107.0,117.0,103.0,13.4,1505.3,327.0,-0.7,1.9,2470.249,13.32,0.082,313.0
2020-04-15T08:13:03,42.805,6.029,-0.043,0.042,0.001,107.0,119.0,103.0,13.4,1505.3,324.5,-0.7,1.8,2470.256,13.32,0.06,314.3
2020-04-15T08:16:03,42.805,6.029,-0.066,0.061,0.0,106.0,117.0,104.0,13.4,1505.3,324.1,-0.7,1.8,2470.212,13.32,0.089,312.7
2020-04-15T08:19:03,42.805,6.029,-0.065,0.049,0.02,108.0,117.0,104.0,13.3,1505.3,324.7,-0.7,1.8,2470.211,13.32,0.081,307.0
2020-04-15T08:22:03,42.805,6.029,-0.072,0.044,-0.002,108.0,117.0,103.0,13.4,1505.3,322.9,-0.7,1.8,2470.214,13.32,0.084,301.4
2020-04-15T08:25:03,42.805,6.029,-0.048,0.049,0.028,107.0,118.0,105.0,13.4,1505.3,324.8,-0.7,1.8,2470.237,13.32,0.068,315.6
2020-04-15T08:28:03,42.805,6.029,-0.042,0.04,0.019,107.0,119.0,103.0,13.3,1505.3,323.7,-0.7,1.8,2470.249,13.32,0.057,313.6
2020-04-15T08:31:03,42.805,6.029,-0.055,0.074,0.006,107.0,117.0,104.0,13.4,1505.3,327.7,-0.7,1.8,2470.237,13.32,0.092,323.4
2020-04-15T08:34:03,42.805,6.029,-0.033,0.053,0.021,108.0,118.0,104.0,13.4,1505.3,325.1,-0.7,1.8,2470.25,13.32,0.062,328.1
2020-04-15T08:37:03,42.805,6.029,-0.043,0.053,0.017,108.0,116.0,104.0,13.4,1505.3,326.4,-0.7,1.8,2470.238,13.32,0.068,320.9
2020-04-15T08:40:03,42.805,6.029,-0.059,0.063,0.011,107.0,117.0,105.0,13.3,1505.3,327.2,-0.7,1.9,2470.221,13.32,0.086,316.9
2020-04-15T08:43:03,42.805,6.029,-0.043,0.057,0.021,108.0,118.0,104.0,13.3,1505.3,328.0,-0.7,1.9,2470.225,13.32,0.071,323.0
2020-04-15T08:46:03,42.805,6.029,-0.037,0.05,0.023,108.0,117.0,104.0,13.4,1505.3,323.9,-0.7,1.9,2470.245,13.32,0.062,323.5
2020-04-15T08:49:03,42.805,6.029,-0.037,0.054,0.031,106.0,118.0,104.0,13.4,1505.3,325.0,-0.7,1.8,2470.249,13.32,0.065,325.6
2020-04-15T08:52:03,42.805,6.029,-0.05,0.049,0.001,107.0,117.0,102.0,13.3,1505.3,327.4,-0.7,1.8,2470.197,13.32,0.07,314.4
2020-04-15T08:55:03,42.805,6.029,-0.054,0.045,0.002,107.0,117.0,104.0,13.4,1505.3,323.9,-0.7,1.8,2470.203,13.32,0.07,309.8
2020-04-15T08:58:03,42.805,6.029,-0.064,0.059,-0.018,107.0,115.0,103.0,13.4,1505.3,325.9,-0.7,1.8,2470.187,13.32,0.087,312.7
2020-04-15T09:04:03,42.805,6.029,-0.037,0.065,0.042,107.0,119.0,103.0,13.4,1505.2,326.8,-0.7,1.8,2470.26,13.3,0.074,330.3
2020-04-15T09:07:03,42.805,6.029,-0.043,0.051,0.026,106.0,117.0,103.0,13.4,1505.3,325.0,-0.7,1.8,2470.249,13.31,0.066,319.9
2020-04-15T09:10:03,42.805,6.029,-0.035,0.07,0.001,106.0,117.0,104.0,13.4,1505.3,325.9,-0.7,1.8,2470.313,13.32,0.078,333.4
2020-04-15T09:13:03,42.805,6.029,-0.031,0.063,-0.006,106.0,118.0,103.0,13.4,1505.3,327.7,-0.7,1.8,2470.282,13.32,0.07,333.8
2020-04-15T09:16:03,42.805,6.029,-0.04,0.054,-0.034,107.0,118.0,104.0,13.4,1505.3,326.8,-0.7,1.8,2470.277,13.32,0.067,323.5
2020-04-15T09:22:03,42.805,6.029,-0.044,0.054,0.016,107.0,118.0,103.0,13.4,1505.2,326.3,-0.7,1.8,2470.279,13.3,0.069,320.8
2020-04-15T09:25:03,42.805,6.029,-0.046,0.061,0.021,108.0,119.0,103.0,13.4,1505.3,324.2,-0.7,1.8,2470.317,13.31,0.076,323.0
2020-04-15T09:28:03,42.805,6.029,-0.022,0.031,0.045,107.0,117.0,104.0,13.4,1505.3,323.9,-0.7,1.8,2470.251,13.32,0.038,324.6
2020-04-15T09:31:03,42.805,6.029,-0.039,0.054,0.01,107.0,117.0,104.0,13.4,1505.3,326.9,-0.7,1.8,2470.265,13.32,0.066,324.2
2020-04-15T09:34:03,42.805,6.029,-0.047,0.042,0.013,107.0,117.0,103.0,13.4,1505.3,323.0,-0.7,1.9,2470.28,13.32,0.063,311.8
2020-04-15T09:37:03,42.805,6.029,-0.037,0.029,0.017,107.0,116.0,105.0,13.4,1505.3,324.9,-0.7,1.8,2470.263,13.32,0.047,308.1
2020-04-15T09:40:03,42.805,6.029,-0.074,0.064,0.016,108.0,116.0,103.0,13.4,1505.3,327.3,-0.7,1.8,2470.256,13.32,0.097,310.9
2020-04-15T09:43:03,42.805,6.029,-0.061,0.058,0.017,108.0,117.0,105.0,13.4,1505.3,327.3,-0.7,1.8,2470.263,13.32,0.084,313.6
2020-04-15T09:46:03,42.805,6.029,-0.044,0.054,-0.014,107.0,118.0,103.0,13.4,1505.3,326.3,-0.7,1.8,2470.242,13.32,0.069,320.8
2020-04-15T09:49:03,42.805,6.029,-0.043,0.047,0.003,106.0,116.0,104.0,13.4,1505.3,326.9,-0.7,1.8,2470.256,13.32,0.063,317.5
2020-04-15T09:52:03,42.805,6.029,-0.073,0.056,0.011,107.0,118.0,103.0,13.4,1505.3,324.6,-0.7,1.8,2470.277,13.32,0.092,307.5
2020-04-15T09:55:03,42.805,6.029,-0.067,0.048,0.007,106.0,118.0,104.0,13.4,1505.3,326.9,-0.7,1.8,2470.239,13.32,0.082,305.6
2020-04-15T09:58:03,42.805,6.029,-0.035,0.047,0.041,108.0,116.0,104.0,13.4,1505.3,326.8,-0.7,1.8,2470.289,13.32,0.058,323.3
2020-04-15T10:04:03,42.805,6.029,-0.023,0.063,0.018,106.0,118.0,103.0,13.4,1505.2,327.8,-0.7,1.9,2470.247,13.3,0.067,339.9
2020-04-15T10:07:03,42.805,6.029,-0.044,0.01,0.019,107.0,116.0,103.0,13.4,1505.3,324.6,-0.7,1.8,2470.28,13.31,0.045,282.8